• MPC Preparation (Info)

  • MPEC 2019-U265 : 2019 UG11

    The following Minor Planet Electronic Circular may be linked-to from your own Web pages, but must not otherwise be redistributed electronically.

    A form allowing access to any MPEC is at the bottom of this page.


    Read MPEC 2019-U264 Read MPEC 2019-U266


    M.P.E.C. 2019-U265                             Issued 2019 October 29, 20:40 UT
    
         The Minor Planet Electronic Circulars contain information on unusual
             minor planets and routine data on comets.  They are published
        on behalf of Division F of the International Astronomical Union by the
              Minor Planet Center, Smithsonian Astrophysical Observatory,
                              Cambridge, MA 02138, U.S.A.
    
                 Prepared using the Tamkin Foundation Computer Network
    
                                  MPC@CFA.HARVARD.EDU
                URL https://www.minorplanetcenter.net/    ISSN 1523-6714
    
                                    2019 UG11                                
    
    
    Observations:
         K19U11G* C2019 10 29.28065 02 01 25.93 -05 29 22.8          18.9 GVEU265G96
         K19U11G  C2019 10 29.28626 02 01 26.01 -05 29 06.5          18.9 GVEU265G96
         K19U11G  C2019 10 29.29039 02 01 26.09 -05 28 54.8          19.4 GVEU265703
         K19U11G  C2019 10 29.29188 02 01 26.09 -05 28 49.8          19.5 GVEU265G96
         K19U11G  C2019 10 29.29752 02 01 26.17 -05 28 33.1          19.6 GVEU265G96
         K19U11G  C2019 10 29.30103 02 01 26.17 -05 28 21.9          18.9 GVEU265703
         K19U11G  C2019 10 29.30636 02 01 26.25 -05 28 05.5          19.6 GVEU265703
         K19U11G  C2019 10 29.32954402 01 25.37 -05 27 05.1          19.0 GVEU265H01
         K19U11G  C2019 10 29.33680002 01 25.56 -05 26 42.7          18.8 GVEU265H01
         K19U11G  C2019 10 29.34998002 01 25.94 -05 26 01.5          18.7 GVEU265H01
         K19U11G  C2019 10 29.35549302 01 26.13 -05 25 44.3          18.8 GVEU265H01
         K19U11G  C2019 10 29.41685 02 01 30.10 -05 22 16.9          18.6 GVEU265I52
         K19U11G  C2019 10 29.42100 02 01 30.39 -05 22 03.2          18.7 GVEU265I52
         K19U11G  C2019 10 29.42516 02 01 30.67 -05 21 49.2          19.4 GVEU265I52
         K19U11G KC2019 10 29.82163 02 03 25.29 -04 59 41.1          18.2 RVEU265K61
         K19U11G KC2019 10 29.82258 02 03 25.43 -04 59 37.7          18.2 RVEU265K61
         K19U11G KC2019 10 29.82655 02 03 25.99 -04 59 22.6          18.1 RVEU265K61
    
    Observer details:
    703 Catalina Sky Survey.  Observer D. Rankin.  Measurers E. J. Christensen, G. 
       A. Farneth, D. C. Fuls, A. R. Gibbs, A. D. Grauer, H. Groeller, R. A. 
       Kowalski, S. M. Larson, G. J. Leonard, T. A. Pruyne, D. Rankin, R. L. Seaman,
        F. C. Shelly, K. W. Wierzchos.  0.68-m Schmidt + 10K CCD.
    G96 Mt. Lemmon Survey.  Observer R. A. Kowalski.  Measurers E. J. Christensen, 
       G. A. Farneth, D. C. Fuls, A. R. Gibbs, A. D. Grauer, H. Groeller, R. A. 
       Kowalski, S. M. Larson, G. J. Leonard, T. A. Pruyne, D. Rankin, R. L. Seaman,
        F. C. Shelly, K. W. Wierzchos.  1.5-m reflector + 10K CCD.
    H01 Magdalena Ridge Observatory, Socorro.  Observers W. H. Ryan, E. V. Ryan.  
        Measurer W. H. Ryan.  2.4-m f/8.9 Ritchey-Chretien + CCD.
    I52 Steward Observatory, Mt. Lemmon Station.  Observer T. A. Pruyne.  Measurers 
       E. J. Christensen, G. A. Farneth, D. C. Fuls, A. R. Gibbs, A. D. Grauer, H. 
       Groeller, R. A. Kowalski, S. M. Larson, G. J. Leonard, T. A. Pruyne, D. 
       Rankin, R. L. Seaman, F. C. Shelly, K. W. Wierzchos.  1.0-m reflector + CCD.
    K61 Rokycany Observatory.  Observer M. Adamovsky.  0.51-m f/6.8 reflector + CCD.
    
    Orbital elements:
    2019 UG11                                                Earth MOID = 0.0009 AU
    Epoch 2019 Apr. 27.0 TT = JDT 2458600.5                 Bell
    M 225.62876              (2000.0)            P               Q
    n   0.57563035     Peri.   59.75755     -0.14233035     -0.98796726
    a   1.4312217      Node    38.57242     +0.87152092     -0.15407168
    e   0.4040824      Incl.    5.57022     +0.46924765     -0.01351318
    P   1.71           H   26.7           G   0.15           U   8
    Residuals in seconds of arc
    191029 G96  0.1+  0.1-    191029 703  0.5-  1.1+    191029 I52  0.2+  0.1-
    191029 G96  0.1+  0.2-    191029 H01  0.1-  0.2-    191029 I52  0.1+  0.0
    191029 703  0.7+  0.8-    191029 H01  0.0   0.2-    191029 K61  0.2-  0.4+
    191029 G96  0.1+  0.0     191029 H01  0.2-  0.1-    191029 K61  0.1-  0.1+
    191029 G96  0.0   0.0     191029 H01  0.2-  0.2-    191029 K61  0.3+  0.5-
    191029 703  0.4-  0.6+    191029 I52  0.0   0.1+
    
    Ephemeris:
    2019 UG11                a,e,i = 1.43, 0.40, 6                   q = 0.8529
    Date    TT    R. A. (2000) Decl.     Delta      r    Elong.  Phase     V
    2019 09 29    01 48 27.2 -06 07 33   0.2120  1.1992   156.3    19.6    24.7
    ...
    2019 10 14    01 52 52.5 -07 06 07   0.1117  1.1045   162.2    16.0    23.0
    ...
    2019 10 22    01 54 46.1 -07 11 23   0.06317 1.0556   161.8    17.1    21.7
    ...
    2019 10 28    01 58 48.4 -06 11 33   0.02809 1.0204   160.8    18.6    19.9
    2019 10 29    02 00 41.4 -05 38 03   0.02231 1.0147   161.0    18.6    19.4
    2019 10 30    02 03 53.6 -04 39 51   0.01655 1.0090   161.6    18.1    18.8
    ...
    2019 11 05    13 45 09.0 +10 18 54   0.01818 0.9758    28.9   150.6    26.5
    ...
    2019 11 13    13 54 12.4 +07 27 09   0.06471 0.9351    31.4   146.5    28.4
    ...
    2019 11 28    14 02 40.4 +04 57 59   0.1567  0.8750    41.3   132.0    28.3
    
    A. U. Tomatic                (C) Copyright 2019 MPC           M.P.E.C. 2019-U265
    


    Read MPEC 2019-U264 Read MPEC 2019-U266


    MPEC number:

    Enter an MPEC number in one of the following forms:

    • 1997-B01 (the full form)
    • J97B01 (the packed version of the full form)
    • B01 (the abbreviated form)